Weather History for La Paz, Mexico

Change the Weather History Date:

Friday, May 31, 2013

  Actual Average Record
Temperature  
Mean Temperature 78 °F -  
Max Temperature 96 °F 94 °F 104 °F (2012)
Min Temperature 60 °F 65 °F 59 °F (2003)
Cooling Degree Days 13    
Growing Degree Days 28 (Base 50)    
Moisture  
Dew Point 51 °F    
Average Humidity 48    
Maximum Humidity 82    
Minimum Humidity 12    
Precipitation  
Precipitation 0.00 in - - ()
Sea Level Pressure  
Sea Level Pressure 29.86 in    
Wind  
Wind Speed 8 mph ()    
Max Wind Speed 14 mph    
Max Gust Speed -    
Visibility 9.8 miles    
Events      
Averages and records for this station are not official NWS values.
T = Trace of Precipitation, MM = Missing Value Source: Averaged Metar Reports

Daily Weather History Graph

Daily Weather History Graph

Search for Another Location

Airport:

Trip Planner

Search our weather history database for the weather conditions in past years. The results will help you decide how hot, cold, wet, or windy it might be!

Date:

Astronomy

May. 31, 2013 Rise Set
Actual Time 6:33 AM MDT 8:04 PM MDT
Civil Twilight 6:08 AM MDT 8:30 PM MDT
Nautical Twilight 5:38 AM MDT 9:00 PM MDT
Astronomical Twilight 5:07 AM MDT 9:31 PM MDT
Moon 1:11 AM MDT (5/31) 1:18 PM MDT (5/31)
Length of Visible Light 14h 21m
Length of Day
13h 31m
Waning Gibbous, 51% of the Moon is Illuminated
May 31
Waning Gibbous
May 31
Last Quarter
Jun 8
New
Jun 16
First Quarter
Jun 23
Full

Hourly Weather History & Observations

Time (MDT) Temp. Dew Point Humidity Pressure Visibility Wind Dir Wind Speed Gust Speed Precip Events Conditions
2:50 AM 64 °F 59 °F 77% 29.89 in 2 mi SSE 11.2 mph - -  
5:50 AM 63 °F 58 °F 78% 29.89 in 2 mi South 8.9 mph - -  
6:14 AM 60.8 °F 55.4 °F 82% 29.95 in 5.0 mi South 6.9 mph - N/A   Scattered Clouds
6:40 AM 60.8 °F 55.4 °F 82% 29.91 in 5.0 mi South 9.2 mph - N/A   Mostly Cloudy
7:41 AM 62.6 °F 55.4 °F 77% 29.92 in 6.0 mi SSW 9.2 mph - N/A   Mostly Cloudy
8:46 AM 64.4 °F 55.4 °F 73% 29.99 in 10.0 mi South 13.8 mph - N/A   Partly Cloudy
8:50 AM 67 °F 58 °F 64% 29.92 in 12 mi South 8.9 mph - -  
9:40 AM 68.0 °F 55.4 °F 64% 29.92 in 10.0 mi SSW 10.4 mph - N/A   Clear
10:44 AM 71.6 °F 53.6 °F 53% 29.90 in 10.0 mi SSW 9.2 mph - N/A   Clear
11:40 AM 78.8 °F 50.0 °F 36% 29.94 in 10.0 mi South 6.9 mph - N/A   Clear
12:00 PM 82 °F - %  in 19 mi South 4.5 mph - -  
12:42 PM 84.2 °F 46.4 °F 27% 29.86 in 13.0 mi SSW 3.5 mph - N/A   Clear
1:46 PM 91.4 °F 42.8 °F 18% 29.82 in 13.0 mi WNW 4.6 mph - N/A   Clear
2:40 PM 95.0 °F 37.4 °F 13% 29.85 in 13.0 mi Calm Calm - N/A   Clear
2:45 PM 95 °F 49 °F 12% 29.81 in 19 mi NW 4.5 mph - -  
3:43 PM 91.4 °F 37.4 °F 15% 29.77 in 13.0 mi North 12.7 mph - N/A   Clear
4:46 PM 93.2 °F 39.2 °F 15% 29.76 in 10.0 mi NNW 6.9 mph - N/A   Clear
5:40 PM 95 °F 50 °F 13% 29.80 in 19 mi NW 6.7 mph - -  
5:48 PM 93.2 °F 42.8 °F 17% 29.88 in 10.0 mi NNW 11.5 mph - N/A   Clear
6:57 PM 86.0 °F 48.2 °F 27% 29.77 in 10.0 mi SW 11.5 mph - N/A   Clear
7:40 PM 77.0 °F 53.6 °F 44% 29.79 in 10.0 mi South 13.8 mph - N/A   Clear
8:40 PM 73 °F 58 °F 49% 29.85 in 2 mi South 13.4 mph - -  
8:41 PM 68.0 °F 55.4 °F 64% 29.91 in 10.0 mi South 11.5 mph - N/A   Clear
9:40 PM 66.2 °F 55.4 °F 68% 29.83 in 10.0 mi South 13.8 mph - N/A   Clear
10:48 PM 64.4 °F 55.4 °F 73% 29.84 in 10.0 mi South 13.8 mph - N/A   Clear
11:45 PM 66 °F 57 °F 66% 29.81 in 2 mi SSE 11.2 mph - -